DW7126 Lourinha PT current weather conditions

sailwx.info

Wind from 076 at 0 knots gusting 4

Air temperature 14.4° C
Dewpoint 7.7° C

Last reported at 2016-May-01 20:45 UTC.
Time now 2016-May-01 21:12 UTC

Location: N 39°14' W 009°18'.
View on Google Maps.

See reports from other nearby stations

  
Tides and Currents Weather Stations Pressure Air Temp Water Temp Dewpoint Dewpoint Depression Visibility Wind Speed Wind Dir Waves Ship Positions
date/time (UTC)wind fromknots sea level pressurealtimeterstation pressurevisibilityair tempwater tempwave heightnotes
2016-May-01 20:45 076 0 gusting 4 14.4
2016-May-01 20:40 072 14.4
2016-May-01 20:35 072 14.4
2016-May-01 20:30 072 1 gusting 7 14.4
2016-May-01 20:25 063 0 gusting 10 14.4
2016-May-01 20:20 044 2 gusting 10 14.4
2016-May-01 20:15 057 4 gusting 10 14.4
2016-May-01 20:10 086 3 gusting 9 14.4
2016-May-01 20:05 081 2 gusting 13 13.9
2016-May-01 20:00 025 5 gusting 13 13.9
2016-May-01 19:55 022 3 gusting 13 13.9
2016-May-01 19:50 032 4 gusting 13 14.4
2016-May-01 19:45 293 3 gusting 12 14.4
2016-May-01 19:40 075 5 gusting 11 14.4
2016-May-01 19:35 036 5 gusting 17 14.4
2016-May-01 19:30 058 3 gusting 18 14.4
2016-May-01 19:25 013 5 gusting 10 14.4
2016-May-01 19:20 069 2 gusting 10 14.4
2016-May-01 19:15 360 3 gusting 10 15.0
2016-May-01 19:10 005 4 gusting 13 15.0
2016-May-01 19:05 355 7 gusting 14 15.0
2016-May-01 19:00 040 1 gusting 14 15.6
2016-May-01 18:55 360 3 gusting 15 15.6
2016-May-01 18:50 027 7 gusting 15 15.6
2016-May-01 18:45 032 8 gusting 13 16.1
2016-May-01 18:40 015 6 gusting 13 16.1
2016-May-01 18:35 360 9 gusting 15 16.1
2016-May-01 18:30 005 9 gusting 16 16.7
2016-May-01 18:25 045 10 gusting 20 16.7
2016-May-01 18:20 013 11 gusting 20 16.7
2016-May-01 18:15 080 10 gusting 19 16.7
2016-May-01 18:10 017 7 gusting 13 17.2
2016-May-01 18:05 042 4 gusting 13 17.2
2016-May-01 18:00 028 7 gusting 18 17.2
2016-May-01 17:55 021 12 gusting 18 17.2
2016-May-01 17:50 054 9 gusting 16 17.8
2016-May-01 17:45 021 6 gusting 15 17.8
2016-May-01 17:40 026 10 gusting 17 17.2
2016-May-01 17:35 360 8 gusting 17 17.8
2016-May-01 17:30 028 11 gusting 19 17.8
2016-May-01 17:25 015 12 gusting 19 17.8
2016-May-01 17:20 005 10 gusting 18 17.8
2016-May-01 17:15 351 10 gusting 24 17.8
2016-May-01 17:10 027 11 gusting 19 18.3
2016-May-01 17:05 012 12 gusting 19 18.3
2016-May-01 17:00 338 12 gusting 19 18.3
2016-May-01 16:55 019 8 gusting 19 18.9
2016-May-01 16:50 360 9 gusting 19 18.9
2016-May-01 16:45 019 10 gusting 20 18.3
2016-May-01 16:40 026 12 gusting 20 18.9
2016-May-01 16:35 026 13 gusting 19 18.9
2016-May-01 16:30 034 12 gusting 23 18.9
2016-May-01 16:25 028 13 gusting 25 18.9
2016-May-01 16:20 022 15 gusting 25 18.9
2016-May-01 16:15 042 14 gusting 19 18.9
2016-May-01 16:10 014 8 gusting 17 18.9
2016-May-01 16:05 338 9 gusting 22 18.9
2016-May-01 16:00 360 10 gusting 22 18.9
2016-May-01 15:55 038 12 gusting 18 18.9
2016-May-01 15:50 019 11 gusting 18 19.4
2016-May-01 15:45 016 8 gusting 17 19.4
2016-May-01 15:40 021 11 gusting 17 18.9
2016-May-01 15:35 325 10 gusting 18 19.4
2016-May-01 15:30 011 8 gusting 18 19.4
2016-May-01 15:25 049 8 gusting 17 19.4
2016-May-01 15:20 023 11 gusting 22 18.9
2016-May-01 15:15 360 13 gusting 22 18.9
2016-May-01 15:10 345 12 gusting 19 18.9
2016-May-01 15:05 005 13 gusting 19 19.4
2016-May-01 15:00 034 10 gusting 17 19.4
2016-May-01 14:55 026 11 gusting 21 19.4
2016-May-01 14:50 011 14 gusting 22 20.0
2016-May-01 14:45 038 15 gusting 22 20.0
2016-May-01 14:40 024 14 gusting 22 19.4
2016-May-01 14:35 032 12 gusting 19 20.0
2016-May-01 14:30 019 11 gusting 20 20.0
2016-May-01 14:25 037 13 gusting 21 20.6
2016-May-01 14:20 029 12 gusting 21 20.0
2016-May-01 14:15 042 13 gusting 21 20.0
2016-May-01 14:10 013 13 gusting 21 20.6
2016-May-01 14:05 037 15 gusting 21 20.6
2016-May-01 14:00 037 13 gusting 19 20.6
2016-May-01 13:55 039 14 gusting 19 20.0
2016-May-01 13:50 360 13 gusting 19 20.6
2016-May-01 13:45 035 13 gusting 19 20.6
2016-May-01 13:40 032 14 gusting 18 20.6
2016-May-01 13:35 035 11 gusting 18 20.6
2016-May-01 13:30 017 11 gusting 15 20.6
2016-May-01 13:25 016 8 gusting 15 20.6
2016-May-01 13:20 035 9 gusting 15 20.6
2016-May-01 13:15 025 8 gusting 13 20.6
2016-May-01 13:10 015 8 gusting 14 20.6
2016-May-01 13:05 024 8 gusting 15 20.6
2016-May-01 13:00 031 8 gusting 16 21.1
2016-May-01 12:55 017 8 gusting 13 21.1
2016-May-01 12:50 005 8 gusting 13 20.6
2016-May-01 12:45 027 9 gusting 14 21.1
2016-May-01 12:40 355 9 gusting 15 21.1
2016-May-01 12:35 030 10 gusting 15 21.1
2016-May-01 12:30 028 12 gusting 15 21.1
2016-May-01 12:25 026 7 gusting 16 21.1
2016-May-01 12:20 035 10 gusting 16 21.7
2016-May-01 12:15 028 11 gusting 14 21.1
2016-May-01 12:10 034 7 gusting 13 20.6
2016-May-01 12:05 018 7 gusting 14 20.6
2016-May-01 12:00 355 9 gusting 14 21.1
2016-May-01 11:55 024 7 gusting 13 21.1
2016-May-01 11:50 011 6 gusting 12 20.6
2016-May-01 11:45 349 8 gusting 12 20.0
2016-May-01 11:40 019 7 gusting 12 20.6
2016-May-01 11:35 014 3 gusting 9 21.7
2016-May-01 11:30 014 4 gusting 10 21.7
2016-May-01 11:25 075 5 gusting 10 21.1
2016-May-01 11:20 084 6 gusting 12 21.1
2016-May-01 11:15 061 6 gusting 12 20.6
2016-May-01 11:10 088 6 gusting 13 21.1
2016-May-01 11:05 042 9 gusting 13 20.6
2016-May-01 11:00 041 4 gusting 14 20.6
2016-May-01 10:55 077 7 gusting 14 20.6
2016-May-01 10:50 082 11 gusting 14 20.6
2016-May-01 10:45 080 9 gusting 15 20.6
2016-May-01 10:40 055 11 gusting 15 20.0
2016-May-01 10:35 059 6 gusting 13 20.6
2016-May-01 10:30 082 8 gusting 13 20.0
2016-May-01 10:25 080 10 gusting 13 20.0
2016-May-01 10:20 054 11 gusting 13 19.4
2016-May-01 10:15 360 8 gusting 14 20.0
2016-May-01 10:10 070 7 gusting 13 19.4
2016-May-01 10:05 069 6 gusting 14 19.4
2016-May-01 10:00 085 9 gusting 14 19.4
2016-May-01 09:55 077 11 gusting 13 18.9
2016-May-01 09:50 090 10 gusting 15 18.9
2016-May-01 09:45 092 11 gusting 18 18.9
2016-May-01 09:40 060 10 gusting 18 18.9
2016-May-01 09:35 086 12 gusting 20 18.9
2016-May-01 09:30 082 12 gusting 21 18.3
2016-May-01 09:25 088 15 gusting 21 18.3
2016-May-01 09:20 085 9 gusting 15 18.3
2016-May-01 09:15 099 10 gusting 15 18.3
2016-May-01 09:10 077 9 gusting 18 17.8
2016-May-01 09:05 071 9 gusting 18 17.8
2016-May-01 09:00 065 10 gusting 21 17.8
2016-May-01 08:55 075 14 gusting 21 17.2
2016-May-01 08:50 059 11 gusting 23 17.2
2016-May-01 08:45 090 12 gusting 23 17.2
2016-May-01 08:40 088 12 gusting 20 16.7
2016-May-01 08:35 083 13 gusting 20 16.7
2016-May-01 08:30 094 14 gusting 19 16.7
2016-May-01 08:25 078 12 gusting 19 16.1
2016-May-01 08:20 088 9 gusting 19 16.1
2016-May-01 08:15 077 8 gusting 14 16.1
2016-May-01 08:10 061 6 gusting 13 15.6
2016-May-01 08:05 084 7 gusting 11 15.6
2016-May-01 08:00 064 6 gusting 12 15.0
2016-May-01 07:55 058 9 gusting 12 15.0
2016-May-01 07:50 078 4 gusting 9 15.0
2016-May-01 07:45 086 4 gusting 7 14.4
2016-May-01 07:40 082 2 gusting 6 13.9
2016-May-01 07:35 071 1 gusting 6 13.3
2016-May-01 07:30 065 1 gusting 4 12.8
2016-May-01 07:25 082 11.7
2016-May-01 07:20 056 11.1
2016-May-01 07:15 057 10.6
2016-May-01 07:10 057 10.6
2016-May-01 07:05 057 11.1
2016-May-01 07:00 057 10.6
2016-May-01 06:55 057 10.0
2016-May-01 06:50 057 10.0
2016-May-01 06:45 057 9.4
2016-May-01 06:40 057 9.4
2016-May-01 06:35 057 8.9
2016-May-01 06:30 057 8.9
2016-May-01 06:25 057 8.9
2016-May-01 06:20 057 9.4
2016-May-01 06:15 057 9.4
2016-May-01 06:10 057 9.4
2016-May-01 06:05 057 9.4
2016-May-01 06:00 057 10.0
2016-May-01 05:55 057 10.0
2016-May-01 05:50 057 10.0
2016-May-01 05:45 057 10.0
2016-May-01 05:40 057 10.0
2016-May-01 05:35 057 10.6
2016-May-01 05:30 057 10.6
2016-May-01 05:25 057 10.6
2016-May-01 05:20 057 10.0
2016-May-01 05:15 057 10.0
2016-May-01 05:10 053 10.6
2016-May-01 05:05 053 10.6
2016-May-01 05:00 053 0 gusting 3 10.6
2016-May-01 04:55 051 10.6
2016-May-01 04:50 051 0 gusting 4 11.1
2016-May-01 04:45 055 10.6
2016-May-01 04:40 055 2 gusting 6 10.6
2016-May-01 04:35 047 3 gusting 4 10.6
2016-May-01 04:30 055 2 gusting 4 11.1
2016-May-01 04:25 052 2 gusting 4 11.1
2016-May-01 04:20 050 1 gusting 4 11.1
2016-May-01 04:15 047 2 gusting 6 11.1
2016-May-01 04:10 044 1 gusting 6 11.1
2016-May-01 04:05 046 2 gusting 5 11.1
2016-May-01 04:00 038 2 gusting 6 11.7
2016-May-01 03:55 054 3 gusting 6 11.7
2016-May-01 03:50 058 3 gusting 5 11.7
2016-May-01 03:45 041 2 gusting 5 11.7
2016-May-01 03:40 044 2 gusting 5 11.7
2016-May-01 03:35 038 1 gusting 5 11.7
2016-May-01 03:30 040 2 gusting 6 11.7
2016-May-01 03:25 041 3 gusting 6 11.7
2016-May-01 03:20 034 2 gusting 5 11.7
2016-May-01 03:15 030 3 gusting 6 11.7
2016-May-01 03:10 039 2 gusting 8 12.2
2016-May-01 03:05 032 3 gusting 8 12.2
2016-May-01 03:00 031 4 gusting 6 12.2
2016-May-01 02:55 056 2 gusting 6 12.2
2016-May-01 02:50 058 1 gusting 6 12.2
2016-May-01 02:45 051 1 gusting 8 12.2
2016-May-01 02:40 024 6 gusting 9 12.2
2016-May-01 02:35 038 4 gusting 11 12.2
2016-May-01 02:30 019 6 gusting 11 12.2
2016-May-01 02:25 032 6 gusting 10 12.2
2016-May-01 02:20 036 6 gusting 12 12.2
2016-May-01 02:15 018 6 gusting 11 12.2
2016-May-01 02:10 039 4 gusting 10 12.2
2016-May-01 02:05 053 6 gusting 13 12.2
2016-May-01 02:00 061 5 gusting 13 12.2
2016-May-01 01:55 038 3 gusting 10 12.2
2016-May-01 01:50 030 6 gusting 10 12.8
2016-May-01 01:45 036 6 gusting 10 12.2
2016-May-01 01:40 009 0 gusting 5 12.2
2016-May-01 01:35 015 12.2
2016-May-01 01:30 015 0 gusting 4 12.8
2016-May-01 01:25 015 0 gusting 6 12.8
2016-May-01 01:20 005 3 gusting 7 12.8
2016-May-01 01:15 005 12.8
2016-May-01 01:10 028 4 gusting 6 12.8
2016-May-01 01:05 005 4 gusting 7 12.8
2016-May-01 01:00 355 4 gusting 7 12.8
2016-May-01 00:55 011 1 gusting 6 12.8
2016-May-01 00:50 355 3 gusting 6 12.8
2016-May-01 00:45 349 12.8
2016-May-01 00:40 016 1 gusting 7 12.8
2016-May-01 00:35 031 1 gusting 7 12.8
2016-May-01 00:30 061 12.8
2016-May-01 00:25 005 0 gusting 5 12.8
2016-May-01 00:20 016 12.8
2016-May-01 00:15 020 2 gusting 5 12.8
2016-May-01 00:10 035 12.8
2016-May-01 00:05 041 0 gusting 7 12.8
2016-May-01 00:00 355 2 gusting 7 12.8
2016-Apr-30 23:56 020 12.8
2016-Apr-30 23:50 011 3 gusting 8 12.8
2016-Apr-30 23:45 026 6 gusting 8 12.8
2016-Apr-30 23:40 009 2 gusting 6 12.8
2016-Apr-30 23:35 028 1 gusting 6 12.8
2016-Apr-30 23:30 022 4 gusting 7 12.8
2016-Apr-30 23:25 023 3 gusting 10 12.8
2016-Apr-30 23:20 030 2 gusting 7 12.8
2016-Apr-30 23:15 032 5 gusting 6 12.8
2016-Apr-30 23:10 342 3 gusting 6 13.3
2016-Apr-30 23:05 360 1 gusting 9 13.3
2016-Apr-30 23:00 355 1 gusting 10 13.3
2016-Apr-30 22:55 355 5 gusting 8 13.3
2016-Apr-30 22:50 054 2 gusting 6 12.8
2016-Apr-30 22:45 103 12.8
2016-Apr-30 22:40 069 12.8
2016-Apr-30 22:35 067 0 gusting 6 12.8
2016-Apr-30 22:30 263 12.8
2016-Apr-30 22:25 329 0 gusting 6 12.8
2016-Apr-30 22:20 145 0 gusting 7 12.8
2016-Apr-30 22:15 030 1 gusting 7 13.3
2016-Apr-30 22:10 240 0 gusting 5 12.8
2016-Apr-30 22:05 111 1 gusting 5 12.8
2016-Apr-30 22:00 177 12.8
2016-Apr-30 21:55 211 0 gusting 10 12.8
2016-Apr-30 21:50 303 1 gusting 10 12.8
2016-Apr-30 21:45 186 12.8
2016-Apr-30 21:40 091 0 gusting 6 13.3
2016-Apr-30 21:35 342 2 gusting 11 13.3
2016-Apr-30 21:30 015 2 gusting 14 13.3
2016-Apr-30 21:25 078 7 gusting 14 13.3
2016-Apr-30 21:20 025 8 gusting 16 13.3
2016-Apr-30 21:15 039 8 gusting 16 13.3
2016-Apr-30 21:10 342 7 gusting 13 13.3
2016-Apr-30 21:05 028 2 gusting 9 13.3
2016-Apr-30 21:00 088 6 gusting 8 13.3
2016-Apr-30 20:55 013 1 gusting 10 13.3
2016-Apr-30 20:50 334 1 gusting 11 13.3
2016-Apr-30 20:45 017 4 gusting 11 13.3
2016-Apr-30 20:40 032 3 gusting 11 13.3
2016-Apr-30 20:35 042 2 gusting 18 13.3
2016-Apr-30 20:30 022 4 gusting 18 13.3
2016-Apr-30 20:25 045 6 gusting 13 13.3
2016-Apr-30 20:20 016 4 gusting 10 13.3
2016-Apr-30 20:15 035 1 gusting 10 13.3
2016-Apr-30 20:10 013 4 gusting 10 13.3
2016-Apr-30 20:05 005 5 gusting 12 13.3
2016-Apr-30 20:00 016 6 gusting 14 13.3
2016-Apr-30 19:55 016 7 gusting 18 13.3
2016-Apr-30 19:50 005 9 gusting 18 13.3
2016-Apr-30 19:45 019 6 gusting 13 13.3
2016-Apr-30 19:40 026 7 gusting 15 13.9
2016-Apr-30 19:35 038 6 gusting 15 13.9
2016-Apr-30 19:30 009 6 gusting 13 13.9
2016-Apr-30 19:25 024 6 gusting 14 13.9
2016-Apr-30 19:20 053 6 gusting 14 13.9
2016-Apr-30 19:15 026 8 gusting 17 14.4
2016-Apr-30 19:10 022 11 gusting 17 14.4
2016-Apr-30 19:05 360 9 gusting 19 14.4
2016-Apr-30 19:00 028 13 gusting 19 14.4
2016-Apr-30 18:55 005 11 gusting 20 14.4
2016-Apr-30 18:50 017 8 gusting 16 15.0
2016-Apr-30 18:45 005 9 gusting 18 15.0
2016-Apr-30 18:40 031 12 gusting 18 15.0
2016-Apr-30 18:35 029 12 gusting 19 15.0
2016-Apr-30 18:30 030 13 gusting 18 15.0
2016-Apr-30 18:25 016 12 gusting 21 15.6
2016-Apr-30 18:20 013 12 gusting 21 15.6
2016-Apr-30 18:15 025 10 gusting 16 15.6
2016-Apr-30 18:10 022 12 gusting 19 15.6
2016-Apr-30 18:05 013 14 gusting 21 15.6
2016-Apr-30 18:00 360 13 gusting 24 15.6
2016-Apr-30 17:55 044 16 gusting 24 15.6
2016-Apr-30 17:50 033 16 gusting 23 15.6
2016-Apr-30 17:45 015 14 gusting 23 15.6
2016-Apr-30 17:40 031 12 gusting 21 15.6
2016-Apr-30 17:35 016 13 gusting 23 15.6
2016-Apr-30 17:30 009 16 gusting 24 15.6
2016-Apr-30 17:25 013 19 gusting 24 16.1
2016-Apr-30 17:20 014 11 gusting 19 16.1
2016-Apr-30 17:15 005 10 gusting 21 16.1
2016-Apr-30 17:10 005 13 gusting 22 16.1
2016-Apr-30 17:05 360 13 gusting 21 16.1
2016-Apr-30 17:00 031 14 gusting 19 16.1
2016-Apr-30 16:55 016 12 gusting 21 16.1
2016-Apr-30 16:50 035 13 gusting 24 15.6
2016-Apr-30 16:45 025 13 gusting 24 15.6
2016-Apr-30 16:40 034 16 gusting 27 15.6
2016-Apr-30 16:35 020 17 gusting 27 16.1
2016-Apr-30 16:30 360 11 gusting 22 16.1
2016-Apr-30 16:25 028 13 gusting 22 16.1
2016-Apr-30 16:20 018 13 gusting 21 16.1
2016-Apr-30 16:15 042 13 gusting 23 16.1
2016-Apr-30 16:10 017 15 gusting 23 16.1
2016-Apr-30 16:05 009 13 gusting 20 16.1
2016-Apr-30 16:00 026 13 gusting 20 16.1
2016-Apr-30 15:55 029 12 gusting 23 15.6
2016-Apr-30 15:50 029 13 gusting 25 16.1
2016-Apr-30 15:45 036 13 gusting 25 16.1
2016-Apr-30 15:40 009 12 gusting 20 16.1
2016-Apr-30 15:35 355 12 gusting 19 16.1
2016-Apr-30 15:30 011 10 gusting 21 16.1
2016-Apr-30 15:25 026 13 gusting 23 15.6
2016-Apr-30 15:20 315 13 gusting 23 15.6
2016-Apr-30 15:15 340 11 gusting 25 16.1
2016-Apr-30 15:10 355 13 gusting 25 16.1
2016-Apr-30 15:05 005 11 gusting 20 16.1
2016-Apr-30 15:00 346 13 gusting 21 16.1
2016-Apr-30 14:55 015 14 gusting 21 16.1
2016-Apr-30 14:50 014 14 gusting 22 16.7
2016-Apr-30 14:45 022 15 gusting 21 16.7
2016-Apr-30 14:40 027 10 gusting 19 17.2
2016-Apr-30 14:35 005 10 gusting 19 16.7
2016-Apr-30 14:30 005 10 gusting 21 16.7
2016-Apr-30 14:25 009 13 gusting 19 16.7
2016-Apr-30 14:20 012 11 gusting 22 16.1
2016-Apr-30 14:15 022 14 gusting 22 16.1
2016-Apr-30 14:10 325 10 gusting 23 16.1
2016-Apr-30 14:05 355 8 gusting 23 16.7
2016-Apr-30 14:00 024 11 gusting 21 16.1
2016-Apr-30 13:55 011 11 gusting 19 16.7
2016-Apr-30 13:50 005 8 gusting 21 16.7
2016-Apr-30 13:45 041 15 gusting 21 16.7
2016-Apr-30 13:40 035 11 gusting 19 16.7
2016-Apr-30 13:35 019 12 gusting 18 16.1
2016-Apr-30 13:30 005 10 gusting 18 16.1
2016-Apr-30 13:25 005 12 gusting 20 16.1
2016-Apr-30 13:20 005 13 gusting 20 16.1
2016-Apr-30 13:15 360 13 gusting 20 16.1
2016-Apr-30 13:10 343 13 gusting 21 16.1
2016-Apr-30 13:05 025 11 gusting 20 16.7
2016-Apr-30 13:00 013 9 gusting 20 16.7
2016-Apr-30 12:55 012 11 gusting 19 16.1
2016-Apr-30 12:50 011 10 gusting 23 16.1
2016-Apr-30 12:45 009 13 gusting 24 16.1
2016-Apr-30 12:40 005 13 gusting 24 16.1
2016-Apr-30 12:35 018 13 gusting 22 16.1
2016-Apr-30 12:30 348 14 gusting 20 16.1
2016-Apr-30 12:25 022 14 gusting 20 16.7
2016-Apr-30 12:20 013 14 gusting 20 16.7
2016-Apr-30 12:15 010 10 gusting 20 16.1
2016-Apr-30 12:10 009 14 gusting 22 16.7
2016-Apr-30 12:05 020 14 gusting 22 16.7
2016-Apr-30 12:00 031 13 gusting 20 16.7
2016-Apr-30 11:55 009 13 gusting 20 16.1
2016-Apr-30 11:50 030 10 gusting 22 16.7
2016-Apr-30 11:45 022 13 gusting 22 16.7
2016-Apr-30 11:40 040 11 gusting 20 17.2
2016-Apr-30 11:35 023 13 gusting 20 16.7
2016-Apr-30 11:30 067 14 gusting 21 16.7
2016-Apr-30 11:25 013 14 gusting 25 16.1
2016-Apr-30 11:20 020 16 gusting 25 16.1
2016-Apr-30 11:15 011 14 gusting 22 15.6
2016-Apr-30 11:10 029 17 gusting 25 16.1
2016-Apr-30 11:05 355 13 gusting 21 16.1
2016-Apr-30 11:00 032 13 gusting 26 16.1
2016-Apr-30 10:55 061 16 gusting 26 16.1
2016-Apr-30 10:50 034 15 gusting 23 16.1
2016-Apr-30 10:45 033 15 gusting 24 16.1
2016-Apr-30 10:40 005 17 gusting 24 16.1
2016-Apr-30 10:35 035 12 gusting 20 15.6
2016-Apr-30 10:30 028 14 gusting 20 15.6
2016-Apr-30 10:25 015 12 gusting 23 16.1
2016-Apr-30 10:20 027 15 gusting 23 15.6
2016-Apr-30 10:15 045 12 gusting 22 15.6
2016-Apr-30 10:10 040 15 gusting 22 15.6
2016-Apr-30 10:05 022 13 gusting 23 15.0
2016-Apr-30 10:00 360 17 gusting 27 15.6
2016-Apr-30 09:55 020 19 gusting 27 15.6
2016-Apr-30 09:50 360 15 gusting 26 15.6
2016-Apr-30 09:45 019 19 gusting 26 15.6
2016-Apr-30 09:40 022 14 gusting 26 15.6
2016-Apr-30 09:35 040 19 gusting 26 15.0
2016-Apr-30 09:30 360 18 gusting 26 15.0
2016-Apr-30 09:25 355 13 gusting 24 15.6
2016-Apr-30 09:20 025 12 gusting 19 15.6
2016-Apr-30 09:15 039 13 gusting 20 15.0
2016-Apr-30 09:10 019 11 gusting 20 15.0
2016-Apr-30 09:05 017 13 gusting 20 15.0
2016-Apr-30 09:00 038 14 gusting 20 15.0
2016-Apr-30 08:55 348 12 gusting 20 15.0
2016-Apr-30 08:50 360 9 gusting 21 15.0
2016-Apr-30 08:45 023 13 gusting 21 14.4
2016-Apr-30 08:40 034 12 gusting 18 14.4
2016-Apr-30 08:35 033 9 gusting 16 14.4
2016-Apr-30 08:30 017 11 gusting 16 14.4
2016-Apr-30 08:25 011 8 gusting 16 14.4
2016-Apr-30 08:20 005 9 gusting 18 14.4
2016-Apr-30 08:10 024 12 gusting 22 13.9
2016-Apr-30 08:05 028 12 gusting 22 13.9
2016-Apr-30 08:00 025 10 gusting 19 13.9
2016-Apr-30 07:55 067 13 gusting 19 13.9
2016-Apr-30 07:50 021 12 gusting 20 13.9
2016-Apr-30 07:45 026 13 gusting 20 13.9
2016-Apr-30 07:40 060 8 gusting 13 13.9
2016-Apr-30 07:35 034 7 gusting 17 13.9
2016-Apr-30 07:30 045 9 gusting 19 13.9
2016-Apr-30 07:25 014 8 gusting 17 13.3
2016-Apr-30 07:20 034 9 gusting 15 13.3
2016-Apr-30 07:15 073 6 gusting 15 13.3
2016-Apr-30 07:10 034 6 gusting 15 13.3
2016-Apr-30 07:05 025 9 gusting 15 13.3
2016-Apr-30 07:00 049 6 gusting 15 13.3
2016-Apr-30 06:55 027 7 gusting 15 13.3
2016-Apr-30 06:50 031 8 gusting 13 12.8
2016-Apr-30 06:45 013 7 gusting 13 12.8
2016-Apr-30 06:40 030 7 gusting 13 12.8
2016-Apr-30 06:35 029 6 gusting 13 12.2
2016-Apr-30 06:30 012 8 gusting 13 12.2
2016-Apr-30 06:25 032 7 gusting 13 12.2
2016-Apr-30 06:20 028 7 gusting 16 12.2
2016-Apr-30 06:15 017 9 gusting 16 12.2
2016-Apr-30 06:10 028 6 gusting 13 12.2
2016-Apr-30 06:05 019 6 gusting 13 12.2
2016-Apr-30 06:00 030 6 gusting 15 12.2
2016-Apr-30 05:55 024 9 gusting 15 12.2
2016-Apr-30 05:50 044 9 gusting 13 12.2
2016-Apr-30 05:45 053 9 gusting 15 12.2
2016-Apr-30 05:40 022 8 gusting 17 12.2
2016-Apr-30 05:35 009 10 gusting 17 12.2
2016-Apr-30 05:30 009 9 gusting 16 12.2
2016-Apr-30 05:25 019 10 gusting 16 12.2
2016-Apr-30 05:20 020 7 gusting 15 12.2
2016-Apr-30 05:15 036 8 gusting 15 12.2
2016-Apr-30 05:10 360 10 gusting 18 12.2
2016-Apr-30 05:05 013 9 gusting 14 12.2
2016-Apr-30 05:00 009 8 gusting 13 12.2
2016-Apr-30 04:55 027 8 gusting 14 12.2
2016-Apr-30 04:50 005 10 gusting 16 12.2
2016-Apr-30 04:45 022 10 gusting 16 12.2
2016-Apr-30 04:40 340 9 gusting 15 12.2
2016-Apr-30 04:35 030 8 gusting 15 12.2
2016-Apr-30 04:30 030 10 gusting 15 12.2
2016-Apr-30 04:25 016 8 gusting 14 12.2
2016-Apr-30 04:20 034 9 gusting 14 12.2
2016-Apr-30 04:15 046 7 gusting 13 12.2
2016-Apr-30 04:10 013 8 gusting 13 12.2
2016-Apr-30 04:05 015 6 gusting 13 12.2
2016-Apr-30 04:00 010 7 gusting 13 12.2
2016-Apr-30 03:55 021 7 gusting 16 12.2
2016-Apr-30 03:50 348 10 gusting 16 12.2
2016-Apr-30 03:45 023 8 gusting 14 12.2
2016-Apr-30 03:40 019 7 gusting 13 12.2
2016-Apr-30 03:35 034 6 gusting 13 12.2
2016-Apr-30 03:30 036 7 gusting 16 12.2
2016-Apr-30 03:25 017 7 gusting 16 12.2
2016-Apr-30 03:20 011 7 gusting 16 12.2
2016-Apr-30 03:15 028 7 gusting 11 12.2
2016-Apr-30 03:10 013 6 gusting 15 12.2
2016-Apr-30 03:05 013 10 gusting 17 12.2
2016-Apr-30 03:00 013 10 gusting 17 12.2
2016-Apr-30 02:55 031 7 gusting 14 12.2
2016-Apr-30 02:45 024 6 gusting 17 12.2
2016-Apr-30 02:40 022 10 gusting 17 12.2
2016-Apr-30 02:35 350 9 gusting 15 12.2
2016-Apr-30 02:30 024 10 gusting 15 12.2
2016-Apr-30 02:25 029 11 gusting 18 12.2
2016-Apr-30 02:20 064 12 gusting 18 12.2
2016-Apr-30 02:15 037 11 gusting 17 12.2
2016-Apr-30 02:10 036 8 gusting 14 12.8
2016-Apr-30 02:05 022 7 gusting 14 12.8
2016-Apr-30 02:00 017 11 gusting 14 12.8
2016-Apr-30 01:55 028 10 gusting 16 12.8
2016-Apr-30 01:50 027 12 gusting 16 12.8
2016-Apr-30 01:45 021 8 gusting 17 12.8
2016-Apr-30 01:40 005 10 gusting 17 12.8
2016-Apr-30 01:35 017 8 gusting 16 12.8
2016-Apr-30 01:30 360 8 gusting 16 12.8
2016-Apr-30 01:25 031 9 gusting 16 13.3
2016-Apr-30 01:20 005 13 gusting 18 12.8
2016-Apr-30 01:15 027 9 gusting 18 12.8
2016-Apr-30 01:10 015 7 gusting 14 13.3
2016-Apr-30 01:05 019 8 gusting 13 12.8
2016-Apr-30 01:00 045 6 gusting 13 13.3
2016-Apr-30 00:55 014 7 gusting 12 12.8
2016-Apr-30 00:50 013 7 gusting 15 13.3
2016-Apr-30 00:45 015 7 gusting 15 13.3
2016-Apr-30 00:40 018 8 gusting 16 13.3
2016-Apr-30 00:35 044 6 gusting 18 13.3
2016-Apr-30 00:30 027 8 gusting 16 13.3
2016-Apr-30 00:25 360 10 gusting 20 13.3
2016-Apr-30 00:20 024 12 gusting 20 13.3
2016-Apr-30 00:15 043 8 gusting 16 13.3
2016-Apr-30 00:10 360 10 gusting 18 13.3
2016-Apr-30 00:05 042 12 gusting 18 13.3
2016-Apr-30 00:00 036 11 gusting 16 13.3
2016-Apr-29 23:55 036 12 gusting 16 13.3
2016-Apr-29 23:50 021 9 gusting 15 13.3
2016-Apr-29 23:45 013 10 gusting 14 13.3
2016-Apr-29 23:40 022 7 gusting 15 13.3
2016-Apr-29 23:35 027 10 gusting 18 13.3
2016-Apr-29 23:30 023 11 gusting 18 13.3
2016-Apr-29 23:25 036 12 gusting 18 13.3
2016-Apr-29 23:20 016 10 gusting 14 13.3
2016-Apr-29 23:15 022 7 gusting 13 13.3
2016-Apr-29 23:10 005 8 gusting 13 13.3
2016-Apr-29 23:05 355 8 gusting 14 13.3
2016-Apr-29 23:00 021 10 gusting 14 13.3
2016-Apr-29 22:55 020 9 gusting 14 13.3
2016-Apr-29 22:50 355 7 gusting 13 13.3
2016-Apr-29 22:45 033 6 gusting 11 13.3
2016-Apr-29 22:40 013 7 gusting 11 13.3
2016-Apr-29 22:35 019 6 gusting 10 13.3
2016-Apr-29 22:30 015 6 gusting 10 13.3
2016-Apr-29 22:25 015 6 gusting 12 13.3
2016-Apr-29 22:20 019 6 gusting 12 13.3
2016-Apr-29 22:15 009 6 gusting 9 13.3
2016-Apr-29 22:10 020 6 gusting 11 13.3
2016-Apr-29 22:05 021 6 gusting 11 13.3
2016-Apr-29 22:00 019 7 gusting 12 13.3
2016-Apr-29 21:55 028 6 gusting 12 13.3
2016-Apr-29 21:50 024 8 gusting 12 13.3
2016-Apr-29 21:45 028 5 gusting 10 13.3
2016-Apr-29 21:40 028 6 gusting 11 13.3
2016-Apr-29 21:35 025 6 gusting 13 13.9
2016-Apr-29 21:30 360 6 gusting 13 13.9
2016-Apr-29 21:25 030 6 gusting 12 13.9
2016-Apr-29 21:20 029 6 gusting 14 13.9
2016-Apr-29 21:15 020 10 gusting 14 13.9
2016-Apr-29 21:10 038 9 gusting 15 13.9
2016-Apr-29 21:05 034 6 gusting 18 13.9
2016-Apr-29 21:00 355 8 gusting 18 13.9